CYGFM01 (41887 NORAD) Tracking and Keplerian Element Data

This shows tracking and keplerian element data for the satellite.

Feedback or suggestion? Click here.




ElementValue
Catalog41887
NameCYGFM01
Epoch Orbit18258
Epoch Day93.57437354
Epoch Year2020
RAAN172.3029
Inclination34.9525
Eccentricity0.0015632
Argument of Perigee88.1668
Mean Anonmoly272.0833
Mean Motion15.14396521
Decay Rate3.32E-06
L11 41887U 16078D 20093.57437354 .00000332 00000-0 19438-4 0 9999
L22 41887 34.9525 172.3029 0015632 88.1668 272.0833 15.14396521182582

Live tracking and technical data element details for CYGFM01 (NORAD 41887). CYGFM01 can be tracked NOW for your location showing map with azimuth and elevation plus other details from your city location.

Track the satellite on the map from your city or location and see movement details for azimuth, elevation, latitude, longitude, range, height, and movement on the map or in text.







IsCatalogInMostPopularTable: catalog: 41887, numindb: 429
Update: records affected: 1



GetName: 41887 CYGFM01

Hit Count: updated at: Thu, 09 Apr 2020 17:54:33 GMT